Location: Gwatt
(46.7204°N, 7.6223°E)
Time: 18:53:00
(UTC+00:00)

Transit 2A - Pass Details

Date: 30 January 2021
Orbit: 600 x 958 km, 66.7° (Epoch: 26 February)

Event Time Altitude Azimuth Distance (km) Brightness Sun altitude
Rises 04:11:22 0° 267° (W) 3,378 - -28.3°
Reaches altitude 10° 04:14:50 10° 287° (WNW) 2,370 - -27.7°
Maximum altitude 04:18:15 17° 326° (NNW) 1,872 - -27.1°
Exits shadow 04:20:29 13° 356° (N) 2,033 8.2 -26.7°
Drops below altitude 10° 04:21:29 10° 6° (N) 2,221 8.5 -26.6°
Sets 04:24:36 0° 28° (NNE) 3,072 9.5 -26.0°
